<?xml version="1.0" encoding="UTF-8" standalone="no" ?>
<gpx xmlns="http://www.topografix.com/GPX/1/1" xmlns:xsi="http://www.w3.org/2001/XMLSchema-instance" xsi:schemaLocation="http://www.topografix.com/GPX/1/1 http://www.topografix.com/GPX/1/1/gpx.xsd" version="1.1" creator="VisuGPX - https://www.visugpx.com">
  <metadata>
    <name>Explo albat actuel</name>
  </metadata>
  <wpt lat="47.62579" lon="-2.77487">
    <ele>2</ele>
    <name><![CDATA[Point de passage 1]]></name>
    <type><![CDATA[GENERIC]]></type>
  </wpt>
  <wpt lat="47.65014" lon="-2.80342">
    <ele>22</ele>
    <name><![CDATA[Point de passage 2]]></name>
    <type><![CDATA[GENERIC]]></type>
  </wpt>
  <trk>
    <name><![CDATA[Explo albat actuel]]></name>
    <trkseg>
      <trkpt lat="47.62579" lon="-2.77487">
        <ele>2</ele>
        <time>2025-06-24T14:19:19.000Z</time>
      </trkpt>
      <trkpt lat="47.62527" lon="-2.77481">
        <ele>5</ele>
        <time>2025-06-24T14:20:49.000Z</time>
      </trkpt>
      <trkpt lat="47.62482" lon="-2.77478">
        <ele>8</ele>
        <time>2025-06-24T14:22:12.000Z</time>
      </trkpt>
      <trkpt lat="47.62365" lon="-2.775">
        <ele>14</ele>
        <time>2025-06-24T14:25:28.000Z</time>
      </trkpt>
      <trkpt lat="47.62322" lon="-2.77433">
        <ele>15</ele>
        <time>2025-06-24T14:26:50.000Z</time>
      </trkpt>
      <trkpt lat="47.62296" lon="-2.77305">
        <ele>14</ele>
        <time>2025-06-24T14:28:33.000Z</time>
      </trkpt>
      <trkpt lat="47.62266" lon="-2.77305">
        <ele>15</ele>
        <time>2025-06-24T14:29:18.000Z</time>
      </trkpt>
      <trkpt lat="47.62322" lon="-2.77237">
        <ele>12</ele>
        <time>2025-06-24T14:30:41.000Z</time>
      </trkpt>
      <trkpt lat="47.62177" lon="-2.76843">
        <ele>10</ele>
        <time>2025-06-24T14:36:27.000Z</time>
      </trkpt>
      <trkpt lat="47.6208" lon="-2.76792">
        <ele>8</ele>
        <time>2025-06-24T14:38:25.000Z</time>
      </trkpt>
      <trkpt lat="47.62033" lon="-2.7666">
        <ele>10</ele>
        <time>2025-06-24T14:40:41.000Z</time>
      </trkpt>
      <trkpt lat="47.62059" lon="-2.76615">
        <ele>10</ele>
        <time>2025-06-24T14:41:27.000Z</time>
      </trkpt>
      <trkpt lat="47.61985" lon="-2.76401">
        <ele>13</ele>
        <time>2025-06-24T14:45:04.000Z</time>
      </trkpt>
      <trkpt lat="47.61918" lon="-2.76282">
        <ele>11</ele>
        <time>2025-06-24T14:47:03.000Z</time>
      </trkpt>
      <trkpt lat="47.61994" lon="-2.76205">
        <ele>6</ele>
        <time>2025-06-24T14:48:48.000Z</time>
      </trkpt>
      <trkpt lat="47.61925" lon="-2.7626">
        <ele>11</ele>
        <time>2025-06-24T14:51:09.000Z</time>
      </trkpt>
      <trkpt lat="47.61903" lon="-2.76189">
        <ele>12</ele>
        <time>2025-06-24T14:52:19.000Z</time>
      </trkpt>
      <trkpt lat="47.61901" lon="-2.76096">
        <ele>11</ele>
        <time>2025-06-24T14:53:31.000Z</time>
      </trkpt>
      <trkpt lat="47.61873" lon="-2.75984">
        <ele>9</ele>
        <time>2025-06-24T14:55:03.000Z</time>
      </trkpt>
      <trkpt lat="47.61853" lon="-2.7591">
        <ele>7</ele>
        <time>2025-06-24T14:56:04.000Z</time>
      </trkpt>
      <trkpt lat="47.61853" lon="-2.75856">
        <ele>6</ele>
        <time>2025-06-24T14:56:46.000Z</time>
      </trkpt>
      <trkpt lat="47.61804" lon="-2.7567">
        <ele>3</ele>
        <time>2025-06-24T14:59:20.000Z</time>
      </trkpt>
      <trkpt lat="47.61743" lon="-2.75654">
        <ele>4</ele>
        <time>2025-06-24T15:00:41.000Z</time>
      </trkpt>
      <trkpt lat="47.61709" lon="-2.75548">
        <ele>6</ele>
        <time>2025-06-24T15:02:32.000Z</time>
      </trkpt>
      <trkpt lat="47.61696" lon="-2.75429">
        <ele>6</ele>
        <time>2025-06-24T15:04:05.000Z</time>
      </trkpt>
      <trkpt lat="47.61648" lon="-2.75285">
        <ele>11</ele>
        <time>2025-06-24T15:07:00.000Z</time>
      </trkpt>
      <trkpt lat="47.61605" lon="-2.75263">
        <ele>14</ele>
        <time>2025-06-24T15:08:23.000Z</time>
      </trkpt>
      <trkpt lat="47.6151" lon="-2.75106">
        <ele>14</ele>
        <time>2025-06-24T15:11:06.000Z</time>
      </trkpt>
      <trkpt lat="47.61562" lon="-2.7507">
        <ele>12</ele>
        <time>2025-06-24T15:12:11.000Z</time>
      </trkpt>
      <trkpt lat="47.61508" lon="-2.74916">
        <ele>15</ele>
        <time>2025-06-24T15:14:56.000Z</time>
      </trkpt>
      <trkpt lat="47.61501" lon="-2.74734">
        <ele>8</ele>
        <time>2025-06-24T15:17:17.000Z</time>
      </trkpt>
      <trkpt lat="47.61417" lon="-2.74657">
        <ele>6</ele>
        <time>2025-06-24T15:19:10.000Z</time>
      </trkpt>
      <trkpt lat="47.6141" lon="-2.74414">
        <ele>3</ele>
        <time>2025-06-24T15:22:17.000Z</time>
      </trkpt>
      <trkpt lat="47.61382" lon="-2.74392">
        <ele>4</ele>
        <time>2025-06-24T15:23:04.000Z</time>
      </trkpt>
      <trkpt lat="47.61392" lon="-2.74177">
        <ele>3</ele>
        <time>2025-06-24T15:25:50.000Z</time>
      </trkpt>
      <trkpt lat="47.61367" lon="-2.73914">
        <ele>3</ele>
        <time>2025-06-24T15:29:15.000Z</time>
      </trkpt>
      <trkpt lat="47.61347" lon="-2.73831">
        <ele>4</ele>
        <time>2025-06-24T15:30:33.000Z</time>
      </trkpt>
      <trkpt lat="47.61425" lon="-2.73716">
        <ele>2</ele>
        <time>2025-06-24T15:32:39.000Z</time>
      </trkpt>
      <trkpt lat="47.61392" lon="-2.73668">
        <ele>3</ele>
        <time>2025-06-24T15:33:42.000Z</time>
      </trkpt>
      <trkpt lat="47.61427" lon="-2.73568">
        <ele>2</ele>
        <time>2025-06-24T15:35:08.000Z</time>
      </trkpt>
      <trkpt lat="47.6149" lon="-2.736">
        <ele>1</ele>
        <time>2025-06-24T15:36:24.000Z</time>
      </trkpt>
      <trkpt lat="47.616" lon="-2.73526">
        <ele>5</ele>
        <time>2025-06-24T15:39:24.000Z</time>
      </trkpt>
      <trkpt lat="47.61704" lon="-2.73744">
        <ele>4</ele>
        <time>2025-06-24T15:42:50.000Z</time>
      </trkpt>
      <trkpt lat="47.61801" lon="-2.73934">
        <ele>4</ele>
        <time>2025-06-24T15:45:54.000Z</time>
      </trkpt>
      <trkpt lat="47.61814" lon="-2.74011">
        <ele>3</ele>
        <time>2025-06-24T15:46:55.000Z</time>
      </trkpt>
      <trkpt lat="47.61907" lon="-2.74094">
        <ele>3</ele>
        <time>2025-06-24T15:48:59.000Z</time>
      </trkpt>
      <trkpt lat="47.61965" lon="-2.74084">
        <ele>3</ele>
        <time>2025-06-24T15:50:06.000Z</time>
      </trkpt>
      <trkpt lat="47.62002" lon="-2.74113">
        <ele>3</ele>
        <time>2025-06-24T15:50:54.000Z</time>
      </trkpt>
      <trkpt lat="47.6206" lon="-2.74129">
        <ele>4</ele>
        <time>2025-06-24T15:52:12.000Z</time>
      </trkpt>
      <trkpt lat="47.62149" lon="-2.74196">
        <ele>4</ele>
        <time>2025-06-24T15:54:06.000Z</time>
      </trkpt>
      <trkpt lat="47.62259" lon="-2.74344">
        <ele>4</ele>
        <time>2025-06-24T15:56:56.000Z</time>
      </trkpt>
      <trkpt lat="47.6233" lon="-2.74289">
        <ele>7</ele>
        <time>2025-06-24T15:58:58.000Z</time>
      </trkpt>
      <trkpt lat="47.62388" lon="-2.74308">
        <ele>6</ele>
        <time>2025-06-24T16:00:06.000Z</time>
      </trkpt>
      <trkpt lat="47.62412" lon="-2.7434">
        <ele>4</ele>
        <time>2025-06-24T16:00:43.000Z</time>
      </trkpt>
      <trkpt lat="47.62511" lon="-2.74267">
        <ele>4</ele>
        <time>2025-06-24T16:02:50.000Z</time>
      </trkpt>
      <trkpt lat="47.62574" lon="-2.7418">
        <ele>3</ele>
        <time>2025-06-24T16:04:28.000Z</time>
      </trkpt>
      <trkpt lat="47.62574" lon="-2.74081">
        <ele>3</ele>
        <time>2025-06-24T16:05:45.000Z</time>
      </trkpt>
      <trkpt lat="47.62688" lon="-2.74148">
        <ele>3</ele>
        <time>2025-06-24T16:08:06.000Z</time>
      </trkpt>
      <trkpt lat="47.62811" lon="-2.74207">
        <ele>3</ele>
        <time>2025-06-24T16:10:34.000Z</time>
      </trkpt>
      <trkpt lat="47.63064" lon="-2.7439">
        <ele>6</ele>
        <time>2025-06-24T16:16:27.000Z</time>
      </trkpt>
      <trkpt lat="47.6323" lon="-2.74502">
        <ele>3</ele>
        <time>2025-06-24T16:19:56.000Z</time>
      </trkpt>
      <trkpt lat="47.63157" lon="-2.74669">
        <ele>2</ele>
        <time>2025-06-24T16:22:30.000Z</time>
      </trkpt>
      <trkpt lat="47.63083" lon="-2.74634">
        <ele>2</ele>
        <time>2025-06-24T16:23:58.000Z</time>
      </trkpt>
      <trkpt lat="47.63055" lon="-2.74672">
        <ele>2</ele>
        <time>2025-06-24T16:24:42.000Z</time>
      </trkpt>
      <trkpt lat="47.63001" lon="-2.7465">
        <ele>2</ele>
        <time>2025-06-24T16:25:46.000Z</time>
      </trkpt>
      <trkpt lat="47.62973" lon="-2.7466">
        <ele>3</ele>
        <time>2025-06-24T16:26:30.000Z</time>
      </trkpt>
      <trkpt lat="47.62929" lon="-2.74579">
        <ele>2</ele>
        <time>2025-06-24T16:27:50.000Z</time>
      </trkpt>
      <trkpt lat="47.62886" lon="-2.74584">
        <ele>3</ele>
        <time>2025-06-24T16:28:50.000Z</time>
      </trkpt>
      <trkpt lat="47.62809" lon="-2.74628">
        <ele>2</ele>
        <time>2025-06-24T16:30:25.000Z</time>
      </trkpt>
      <trkpt lat="47.62727" lon="-2.74624">
        <ele>2</ele>
        <time>2025-06-24T16:31:59.000Z</time>
      </trkpt>
      <trkpt lat="47.62631" lon="-2.74677">
        <ele>2</ele>
        <time>2025-06-24T16:33:57.000Z</time>
      </trkpt>
      <trkpt lat="47.62638" lon="-2.74812">
        <ele>6</ele>
        <time>2025-06-24T16:36:22.000Z</time>
      </trkpt>
      <trkpt lat="47.62781" lon="-2.7479">
        <ele>6</ele>
        <time>2025-06-24T16:39:07.000Z</time>
      </trkpt>
      <trkpt lat="47.62758" lon="-2.74884">
        <ele>9</ele>
        <time>2025-06-24T16:40:55.000Z</time>
      </trkpt>
      <trkpt lat="47.6274" lon="-2.74959">
        <ele>11</ele>
        <time>2025-06-24T16:42:17.000Z</time>
      </trkpt>
      <trkpt lat="47.62677" lon="-2.75046">
        <ele>12</ele>
        <time>2025-06-24T16:44:06.000Z</time>
      </trkpt>
      <trkpt lat="47.62641" lon="-2.75084">
        <ele>12</ele>
        <time>2025-06-24T16:44:56.000Z</time>
      </trkpt>
      <trkpt lat="47.62577" lon="-2.75229">
        <ele>5</ele>
        <time>2025-06-24T16:47:09.000Z</time>
      </trkpt>
      <trkpt lat="47.62787" lon="-2.75329">
        <ele>4</ele>
        <time>2025-06-24T16:51:21.000Z</time>
      </trkpt>
      <trkpt lat="47.62833" lon="-2.75368">
        <ele>4</ele>
        <time>2025-06-24T16:52:21.000Z</time>
      </trkpt>
      <trkpt lat="47.6294" lon="-2.75515">
        <ele>4</ele>
        <time>2025-06-24T16:55:07.000Z</time>
      </trkpt>
      <trkpt lat="47.62967" lon="-2.75628">
        <ele>6</ele>
        <time>2025-06-24T16:57:00.000Z</time>
      </trkpt>
      <trkpt lat="47.6296" lon="-2.75668">
        <ele>5</ele>
        <time>2025-06-24T16:57:32.000Z</time>
      </trkpt>
      <trkpt lat="47.62973" lon="-2.75715">
        <ele>4</ele>
        <time>2025-06-24T16:58:11.000Z</time>
      </trkpt>
      <trkpt lat="47.6301" lon="-2.75737">
        <ele>4</ele>
        <time>2025-06-24T16:58:57.000Z</time>
      </trkpt>
      <trkpt lat="47.6309" lon="-2.75684">
        <ele>5</ele>
        <time>2025-06-24T17:00:47.000Z</time>
      </trkpt>
      <trkpt lat="47.63187" lon="-2.75766">
        <ele>5</ele>
        <time>2025-06-24T17:02:55.000Z</time>
      </trkpt>
      <trkpt lat="47.63244" lon="-2.75711">
        <ele>6</ele>
        <time>2025-06-24T17:04:23.000Z</time>
      </trkpt>
      <trkpt lat="47.63293" lon="-2.7569">
        <ele>5</ele>
        <time>2025-06-24T17:05:21.000Z</time>
      </trkpt>
      <trkpt lat="47.63335" lon="-2.75606">
        <ele>3</ele>
        <time>2025-06-24T17:06:42.000Z</time>
      </trkpt>
      <trkpt lat="47.63375" lon="-2.75535">
        <ele>4</ele>
        <time>2025-06-24T17:08:03.000Z</time>
      </trkpt>
      <trkpt lat="47.63413" lon="-2.75462">
        <ele>3</ele>
        <time>2025-06-24T17:09:15.000Z</time>
      </trkpt>
      <trkpt lat="47.63475" lon="-2.75451">
        <ele>2</ele>
        <time>2025-06-24T17:10:26.000Z</time>
      </trkpt>
      <trkpt lat="47.63494" lon="-2.75493">
        <ele>3</ele>
        <time>2025-06-24T17:11:15.000Z</time>
      </trkpt>
      <trkpt lat="47.63548" lon="-2.75472">
        <ele>4</ele>
        <time>2025-06-24T17:12:30.000Z</time>
      </trkpt>
      <trkpt lat="47.63577" lon="-2.75493">
        <ele>4</ele>
        <time>2025-06-24T17:13:06.000Z</time>
      </trkpt>
      <trkpt lat="47.63612" lon="-2.75476">
        <ele>4</ele>
        <time>2025-06-24T17:13:49.000Z</time>
      </trkpt>
      <trkpt lat="47.63764" lon="-2.75504">
        <ele>3</ele>
        <time>2025-06-24T17:16:44.000Z</time>
      </trkpt>
      <trkpt lat="47.63794" lon="-2.7549">
        <ele>3</ele>
        <time>2025-06-24T17:17:21.000Z</time>
      </trkpt>
      <trkpt lat="47.63889" lon="-2.75627">
        <ele>3</ele>
        <time>2025-06-24T17:19:52.000Z</time>
      </trkpt>
      <trkpt lat="47.63922" lon="-2.75746">
        <ele>1</ele>
        <time>2025-06-24T17:21:32.000Z</time>
      </trkpt>
      <trkpt lat="47.63964" lon="-2.75843">
        <ele>2</ele>
        <time>2025-06-24T17:23:11.000Z</time>
      </trkpt>
      <trkpt lat="47.64002" lon="-2.7598">
        <ele>2</ele>
        <time>2025-06-24T17:25:05.000Z</time>
      </trkpt>
      <trkpt lat="47.64052" lon="-2.7598">
        <ele>5</ele>
        <time>2025-06-24T17:26:33.000Z</time>
      </trkpt>
      <trkpt lat="47.6409" lon="-2.76159">
        <ele>4</ele>
        <time>2025-06-24T17:28:58.000Z</time>
      </trkpt>
      <trkpt lat="47.64014" lon="-2.7618">
        <ele>3</ele>
        <time>2025-06-24T17:30:26.000Z</time>
      </trkpt>
      <trkpt lat="47.63974" lon="-2.76212">
        <ele>3</ele>
        <time>2025-06-24T17:31:18.000Z</time>
      </trkpt>
      <trkpt lat="47.63855" lon="-2.76226">
        <ele>3</ele>
        <time>2025-06-24T17:33:34.000Z</time>
      </trkpt>
      <trkpt lat="47.63836" lon="-2.7618">
        <ele>-1</ele>
        <time>2025-06-24T17:34:16.000Z</time>
      </trkpt>
      <trkpt lat="47.63393" lon="-2.76215">
        <ele>1</ele>
        <time>2025-06-24T17:43:04.000Z</time>
      </trkpt>
      <trkpt lat="47.63311" lon="-2.76247">
        <ele>1.9</ele>
        <time>2025-06-24T17:44:42.000Z</time>
      </trkpt>
      <trkpt lat="47.63221" lon="-2.76349">
        <ele>2</ele>
        <time>2025-06-24T17:47:12.000Z</time>
      </trkpt>
      <trkpt lat="47.63176" lon="-2.76426">
        <ele>6</ele>
        <time>2025-06-24T17:49:12.000Z</time>
      </trkpt>
      <trkpt lat="47.6315" lon="-2.76507">
        <ele>7</ele>
        <time>2025-06-24T17:50:31.000Z</time>
      </trkpt>
      <trkpt lat="47.63124" lon="-2.76626">
        <ele>6</ele>
        <time>2025-06-24T17:52:08.000Z</time>
      </trkpt>
      <trkpt lat="47.63055" lon="-2.76792">
        <ele>4</ele>
        <time>2025-06-24T17:54:38.000Z</time>
      </trkpt>
      <trkpt lat="47.63046" lon="-2.76911">
        <ele>5</ele>
        <time>2025-06-24T17:56:21.000Z</time>
      </trkpt>
      <trkpt lat="47.63027" lon="-2.7702">
        <ele>4</ele>
        <time>2025-06-24T17:57:48.000Z</time>
      </trkpt>
      <trkpt lat="47.63065" lon="-2.77157">
        <ele>4</ele>
        <time>2025-06-24T17:59:42.000Z</time>
      </trkpt>
      <trkpt lat="47.63076" lon="-2.7728">
        <ele>3</ele>
        <time>2025-06-24T18:01:18.000Z</time>
      </trkpt>
      <trkpt lat="47.63178" lon="-2.77452">
        <ele>4</ele>
        <time>2025-06-24T18:04:25.000Z</time>
      </trkpt>
      <trkpt lat="47.63282" lon="-2.77708">
        <ele>4</ele>
        <time>2025-06-24T18:08:16.000Z</time>
      </trkpt>
      <trkpt lat="47.63297" lon="-2.778">
        <ele>4</ele>
        <time>2025-06-24T18:09:28.000Z</time>
      </trkpt>
      <trkpt lat="47.63275" lon="-2.77965">
        <ele>2</ele>
        <time>2025-06-24T18:11:38.000Z</time>
      </trkpt>
      <trkpt lat="47.63226" lon="-2.78039">
        <ele>2</ele>
        <time>2025-06-24T18:12:59.000Z</time>
      </trkpt>
      <trkpt lat="47.631" lon="-2.78018">
        <ele>3</ele>
        <time>2025-06-24T18:15:34.000Z</time>
      </trkpt>
      <trkpt lat="47.63077" lon="-2.77977">
        <ele>2</ele>
        <time>2025-06-24T18:16:15.000Z</time>
      </trkpt>
      <trkpt lat="47.63067" lon="-2.77935">
        <ele>2</ele>
        <time>2025-06-24T18:16:49.000Z</time>
      </trkpt>
      <trkpt lat="47.62992" lon="-2.77914">
        <ele>2</ele>
        <time>2025-06-24T18:18:17.000Z</time>
      </trkpt>
      <trkpt lat="47.62941" lon="-2.77842">
        <ele>1</ele>
        <time>2025-06-24T18:19:38.000Z</time>
      </trkpt>
      <trkpt lat="47.6288" lon="-2.77759">
        <ele>1</ele>
        <time>2025-06-24T18:21:13.000Z</time>
      </trkpt>
      <trkpt lat="47.6282" lon="-2.77699">
        <ele>1</ele>
        <time>2025-06-24T18:22:35.000Z</time>
      </trkpt>
      <trkpt lat="47.62764" lon="-2.77639">
        <ele>1</ele>
        <time>2025-06-24T18:23:54.000Z</time>
      </trkpt>
      <trkpt lat="47.62726" lon="-2.77652">
        <ele>1</ele>
        <time>2025-06-24T18:24:39.000Z</time>
      </trkpt>
      <trkpt lat="47.62722" lon="-2.7772">
        <ele>1</ele>
        <time>2025-06-24T18:25:31.000Z</time>
      </trkpt>
      <trkpt lat="47.62766" lon="-2.77756">
        <ele>2</ele>
        <time>2025-06-24T18:26:39.000Z</time>
      </trkpt>
      <trkpt lat="47.62773" lon="-2.77824">
        <ele>1</ele>
        <time>2025-06-24T18:27:32.000Z</time>
      </trkpt>
      <trkpt lat="47.62794" lon="-2.7792">
        <ele>3</ele>
        <time>2025-06-24T18:29:21.000Z</time>
      </trkpt>
      <trkpt lat="47.62815" lon="-2.77946">
        <ele>3</ele>
        <time>2025-06-24T18:29:52.000Z</time>
      </trkpt>
      <trkpt lat="47.6286" lon="-2.7793">
        <ele>4</ele>
        <time>2025-06-24T18:30:56.000Z</time>
      </trkpt>
      <trkpt lat="47.62911" lon="-2.77961">
        <ele>3</ele>
        <time>2025-06-24T18:31:59.000Z</time>
      </trkpt>
      <trkpt lat="47.62957" lon="-2.78018">
        <ele>4</ele>
        <time>2025-06-24T18:33:18.000Z</time>
      </trkpt>
      <trkpt lat="47.62936" lon="-2.78075">
        <ele>2</ele>
        <time>2025-06-24T18:34:08.000Z</time>
      </trkpt>
      <trkpt lat="47.62981" lon="-2.78109">
        <ele>4</ele>
        <time>2025-06-24T18:35:27.000Z</time>
      </trkpt>
      <trkpt lat="47.63039" lon="-2.78138">
        <ele>1</ele>
        <time>2025-06-24T18:36:37.000Z</time>
      </trkpt>
      <trkpt lat="47.63086" lon="-2.78055">
        <ele>3</ele>
        <time>2025-06-24T18:38:21.000Z</time>
      </trkpt>
      <trkpt lat="47.63112" lon="-2.78029">
        <ele>2</ele>
        <time>2025-06-24T18:38:57.000Z</time>
      </trkpt>
      <trkpt lat="47.63233" lon="-2.78039">
        <ele>3</ele>
        <time>2025-06-24T18:41:26.000Z</time>
      </trkpt>
      <trkpt lat="47.6331" lon="-2.78179">
        <ele>5</ele>
        <time>2025-06-24T18:44:06.000Z</time>
      </trkpt>
      <trkpt lat="47.63308" lon="-2.78299">
        <ele>5</ele>
        <time>2025-06-24T18:45:38.000Z</time>
      </trkpt>
      <trkpt lat="47.63329" lon="-2.78343">
        <ele>6</ele>
        <time>2025-06-24T18:46:30.000Z</time>
      </trkpt>
      <trkpt lat="47.63347" lon="-2.78576">
        <ele>6</ele>
        <time>2025-06-24T18:49:31.000Z</time>
      </trkpt>
      <trkpt lat="47.63336" lon="-2.78607">
        <ele>5</ele>
        <time>2025-06-24T18:49:58.000Z</time>
      </trkpt>
      <trkpt lat="47.6334" lon="-2.78675">
        <ele>4</ele>
        <time>2025-06-24T18:50:50.000Z</time>
      </trkpt>
      <trkpt lat="47.63369" lon="-2.78727">
        <ele>4</ele>
        <time>2025-06-24T18:51:43.000Z</time>
      </trkpt>
      <trkpt lat="47.63427" lon="-2.78735">
        <ele>4</ele>
        <time>2025-06-24T18:52:49.000Z</time>
      </trkpt>
      <trkpt lat="47.63477" lon="-2.78712">
        <ele>6</ele>
        <time>2025-06-24T18:54:10.000Z</time>
      </trkpt>
      <trkpt lat="47.63528" lon="-2.78723">
        <ele>6</ele>
        <time>2025-06-24T18:55:09.000Z</time>
      </trkpt>
      <trkpt lat="47.63582" lon="-2.78798">
        <ele>5</ele>
        <time>2025-06-24T18:56:34.000Z</time>
      </trkpt>
      <trkpt lat="47.63642" lon="-2.78837">
        <ele>3</ele>
        <time>2025-06-24T18:57:48.000Z</time>
      </trkpt>
      <trkpt lat="47.63686" lon="-2.78881">
        <ele>4</ele>
        <time>2025-06-24T18:58:59.000Z</time>
      </trkpt>
      <trkpt lat="47.63748" lon="-2.78909">
        <ele>4</ele>
        <time>2025-06-24T19:00:14.000Z</time>
      </trkpt>
      <trkpt lat="47.63787" lon="-2.78894">
        <ele>5</ele>
        <time>2025-06-24T19:01:10.000Z</time>
      </trkpt>
      <trkpt lat="47.63827" lon="-2.78894">
        <ele>5</ele>
        <time>2025-06-24T19:01:56.000Z</time>
      </trkpt>
      <trkpt lat="47.63847" lon="-2.7884">
        <ele>4</ele>
        <time>2025-06-24T19:02:43.000Z</time>
      </trkpt>
      <trkpt lat="47.63801" lon="-2.78629">
        <ele>5</ele>
        <time>2025-06-24T19:05:44.000Z</time>
      </trkpt>
      <trkpt lat="47.63822" lon="-2.78525">
        <ele>3</ele>
        <time>2025-06-24T19:07:08.000Z</time>
      </trkpt>
      <trkpt lat="47.63873" lon="-2.78562">
        <ele>2</ele>
        <time>2025-06-24T19:08:12.000Z</time>
      </trkpt>
      <trkpt lat="47.63871" lon="-2.78497">
        <ele>3</ele>
        <time>2025-06-24T19:09:12.000Z</time>
      </trkpt>
      <trkpt lat="47.63868" lon="-2.78372">
        <ele>2</ele>
        <time>2025-06-24T19:10:48.000Z</time>
      </trkpt>
      <trkpt lat="47.63876" lon="-2.7832">
        <ele>3</ele>
        <time>2025-06-24T19:11:40.000Z</time>
      </trkpt>
      <trkpt lat="47.63897" lon="-2.78385">
        <ele>3</ele>
        <time>2025-06-24T19:12:35.000Z</time>
      </trkpt>
      <trkpt lat="47.63937" lon="-2.78448">
        <ele>2</ele>
        <time>2025-06-24T19:13:42.000Z</time>
      </trkpt>
      <trkpt lat="47.64018" lon="-2.78442">
        <ele>1</ele>
        <time>2025-06-24T19:15:14.000Z</time>
      </trkpt>
      <trkpt lat="47.64062" lon="-2.78367">
        <ele>4</ele>
        <time>2025-06-24T19:17:01.000Z</time>
      </trkpt>
      <trkpt lat="47.64139" lon="-2.78411">
        <ele>3</ele>
        <time>2025-06-24T19:18:35.000Z</time>
      </trkpt>
      <trkpt lat="47.64236" lon="-2.78401">
        <ele>1</ele>
        <time>2025-06-24T19:20:26.000Z</time>
      </trkpt>
      <trkpt lat="47.64293" lon="-2.78406">
        <ele>2</ele>
        <time>2025-06-24T19:21:43.000Z</time>
      </trkpt>
      <trkpt lat="47.64431" lon="-2.78331">
        <ele>9</ele>
        <time>2025-06-24T19:25:43.000Z</time>
      </trkpt>
      <trkpt lat="47.64466" lon="-2.78297">
        <ele>8</ele>
        <time>2025-06-24T19:26:31.000Z</time>
      </trkpt>
      <trkpt lat="47.64498" lon="-2.78388">
        <ele>12</ele>
        <time>2025-06-24T19:28:31.000Z</time>
      </trkpt>
      <trkpt lat="47.64519" lon="-2.78443">
        <ele>15</ele>
        <time>2025-06-24T19:29:50.000Z</time>
      </trkpt>
      <trkpt lat="47.64575" lon="-2.78456">
        <ele>16</ele>
        <time>2025-06-24T19:31:05.000Z</time>
      </trkpt>
      <trkpt lat="47.64613" lon="-2.78635">
        <ele>19</ele>
        <time>2025-06-24T19:34:01.000Z</time>
      </trkpt>
      <trkpt lat="47.64624" lon="-2.78798">
        <ele>19</ele>
        <time>2025-06-24T19:36:08.000Z</time>
      </trkpt>
      <trkpt lat="47.64626" lon="-2.7892">
        <ele>13</ele>
        <time>2025-06-24T19:37:42.000Z</time>
      </trkpt>
      <trkpt lat="47.6468" lon="-2.7906">
        <ele>15</ele>
        <time>2025-06-24T19:40:07.000Z</time>
      </trkpt>
      <trkpt lat="47.64699" lon="-2.79174">
        <ele>17</ele>
        <time>2025-06-24T19:41:58.000Z</time>
      </trkpt>
      <trkpt lat="47.64743" lon="-2.79247">
        <ele>16</ele>
        <time>2025-06-24T19:43:13.000Z</time>
      </trkpt>
      <trkpt lat="47.6482" lon="-2.79276">
        <ele>19</ele>
        <time>2025-06-24T19:45:15.000Z</time>
      </trkpt>
      <trkpt lat="47.64916" lon="-2.79408">
        <ele>20</ele>
        <time>2025-06-24T19:47:55.000Z</time>
      </trkpt>
      <trkpt lat="47.64886" lon="-2.79434">
        <ele>18</ele>
        <time>2025-06-24T19:48:34.000Z</time>
      </trkpt>
      <trkpt lat="47.64862" lon="-2.79569">
        <ele>13</ele>
        <time>2025-06-24T19:50:22.000Z</time>
      </trkpt>
      <trkpt lat="47.64883" lon="-2.7966">
        <ele>10</ele>
        <time>2025-06-24T19:51:36.000Z</time>
      </trkpt>
      <trkpt lat="47.64942" lon="-2.7967">
        <ele>11</ele>
        <time>2025-06-24T19:52:55.000Z</time>
      </trkpt>
      <trkpt lat="47.64926" lon="-2.79766">
        <ele>5</ele>
        <time>2025-06-24T19:54:11.000Z</time>
      </trkpt>
      <trkpt lat="47.649" lon="-2.79948">
        <ele>10</ele>
        <time>2025-06-24T19:57:26.000Z</time>
      </trkpt>
      <trkpt lat="47.64848" lon="-2.80096">
        <ele>16</ele>
        <time>2025-06-24T20:00:37.000Z</time>
      </trkpt>
      <trkpt lat="47.64739" lon="-2.80475">
        <ele>29</ele>
        <time>2025-06-24T20:08:08.000Z</time>
      </trkpt>
      <trkpt lat="47.64769" lon="-2.80495">
        <ele>30</ele>
        <time>2025-06-24T20:08:56.000Z</time>
      </trkpt>
      <trkpt lat="47.64986" lon="-2.80405">
        <ele>23</ele>
        <time>2025-06-24T20:13:14.000Z</time>
      </trkpt>
      <trkpt lat="47.65014" lon="-2.80342">
        <ele>22</ele>
        <time>2025-06-24T20:14:12.000Z</time>
      </trkpt>
    </trkseg>
  </trk>
</gpx>